Location: ??????
(55.7522°N, 37.6156°E)
Time: 17:35:05
(UTC+00:00)

MOZ.5/SAFIR/RUBIN 5/SL-8 - Pass Details

Date: 14 June 2025
Orbit: 668 x 693 km, 98.3° (Epoch: 12 July)

Event Time Altitude Azimuth Distance (km) Brightness Sun altitude
Exits shadow 23:24:40 - 172° (S) 2,626 6.3 -7.3°
Reaches altitude 10° 23:25:59 10° 174° (S) 2,095 5.8 -7.2°
Maximum altitude 23:30:32 65° 257° (WSW) 740 3.8 -6.9°
Drops below altitude 10° 23:35:07 10° 340° (NNW) 2,112 6.9 -6.6°
Sets 23:37:23 0° 343° (NNW) 3,032 7.8 -6.4°
